Weather in Tsypnavolok

Russia / Murmansk Oblast     69°43′58″N   33°05′47″E
temp.,
°C
wind,
m/s
gust,
m/s
humid.,
%
clouds,
%
prec.,
mm/h
press.,
hPa
HPBL,
m
12 may, wed
wed1200:00+4n3498100 0.9 1012122
03:00+4nnw5895100 1.0 1015277
06:00+4nnw4594100 0.1 1019177
09:00+4nw3491100 0.2 1020144
12:00+4nw118999 0.0 102284
15:00+4se3486100 0.1 1023156
18:00+4se6788100 0.1 1022168
21:00+4se7991100 0.1 1019161
13 may, thu
thu1300:00+5sse4593100 0.3 101767
03:00+5sse3399100 6.6 101527
06:00+5s2299100 3.1 101411
09:00+5n1199100 3.7 101319
12:00+5nnw2299100 0.7 101335
15:00+4n45100100 4.1 101497
18:00+4nne5899100 6.4 1014194
21:00+4n5899100 12.1 1015212
14 may, fri
fri1400:00+4nne6899100 0.9 1016289
03:00+3nne8998100 1.1 1018500
06:00+3ne8995100 0.1 1018630
09:00+3ene8995100 0.3 1019694
12:00+2ene81097100 0.3 1020617
15:00+2ene91093100 0.6 1021696
18:00+2ene9984100 0.3 1022866
21:00+2ene8979100 0.3 1022977
15 may, sat
sat1500:00+1ene7877100 0.1 1023908
03:00+1ene7772100 0.2 10231024
06:00+1ene7771100 0.1 10241037
09:00+1ene677097 0.1 1024913
12:00+1e666694 0.1 10251054
15:00+2e776695 0.1 10251092
18:00+2e886887 0.0 10251132
21:00+2ese8969100 0.1 10241105
16 may, sun
sun1600:00+1ese9970100 0.0 10241057
03:00+1ese997194 0.1 10231013
06:00+1ese9107172 0.0 10221042
09:00+1ese10107087 0.0 1021981
12:00+1ese9107181 0.0 1021901
15:00+2ese101170100 0.0 1020848
18:00+2ese101170100 0.0 1020828
21:00+1ese91076100 0.0 1020768